Regional Weather Roundup
Issued by NWS

Home | Current Version | Previous Version | Text Only | Print | Product List | Glossary On
Versions: 1 2 3 4 5 6 7 8 9 10 11 12 13 14 15 16 17 18 19 20 21 22 23 24 25 26 27
000
ASUS44 KBMX 232310
RWRAL

ALABAMA REGIONAL WEATHER ROUNDUP
NATIONAL WEATHER SERVICE BIRMINGHAM AL
500 PM CST MON JAN 23 2017

NOTE: "FAIR" INDICATES FEW OR NO CLOUDS BELOW 12,000 FEET
WITH NO SIGNIFICANT WEATHER AND/OR OBSTRUCTIONS TO VISIBILITY.

THE REMARK "TC" DENOTES TEMPERATURE IN DEGREES CELSIUS.

ALZ001>011-014-016>018-020-240000-
NORTH ALABAMA

CITY           SKY/WX    TMP DP  RH WIND       PRES   REMARKS
MUSCLE SHOALS  CLEAR     53  39  59 NW14G22   29.75R
HUNTSVILLE     MOCLDY    57  45  64 NW13      29.71R
DECATUR        MOCLDY    55  43  63 NW14      29.72R
HALEYVILLE     FAIR      53  41  63 NW8       29.75R
GADSDEN        CLEAR     58  47  66 W8        29.67R
$$

ALZ012-013-022-023-030>036-040>044-240000-
WEST CENTRAL ALABAMA

CITY           SKY/WX    TMP DP  RH WIND       PRES   REMARKS
TUSCALOOSA     CLEAR     58  43  57 NW10      29.75R
$$

ALZ015-024>027-033>036-040>044-240000-
CENTRAL ALABAMA

CITY           SKY/WX    TMP DP  RH WIND       PRES   REMARKS
BIRMINGHAM     PTCLDY    59  45  59 NW14G23   29.72R
MONTGOMERY     CLEAR     63  45  51 W14       29.69R
SHELBY CO ARPT CLEAR     60  46  59 W9G16     29.70R
MAXWELL AFB    CLEAR     63  47  55 W13G18    29.68R
GREENVILLE     FAIR      62  45  53 NW8       29.70R
$$

ALZ019-021-028-029-037-038-045>048-240000-
EAST CENTRAL ALABAMA

CITY           SKY/WX    TMP DP  RH WIND       PRES   REMARKS
ANNISTON       CLEAR     59  45  59 NW8       29.66R
ALEXANDER CITY CLEAR     65  49  56 NW9G16    29.66R
AUBURN         CLEAR     60  45  57 NW12      29.65R
$$

ALZ051>064-240000-
SOUTHWEST ALABAMA

CITY           SKY/WX    TMP DP  RH WIND       PRES   REMARKS
MOBILE         CLEAR     65  47  52 W6        29.78R
BROOKLEY FIELD CLEAR     67  48  50 W12       29.78R
EVERGREEN      CLEAR     65  46  50 VRB7      29.72R
$$

ALZ049-050-065>069-240000-
SOUTHEAST ALABAMA

CITY           SKY/WX    TMP DP  RH WIND       PRES   REMARKS
DOTHAN         CLEAR     64  48  56 W16       29.68R
OZARK          CLEAR     64  48  54 W10G20    29.66R
TROY           CLEAR     62  48  60 W13       29.68R
EUFAULA        FAIR      64  45  49 W8        29.62R
$$




USA.gov is the U.S. government's official web portal to all federal, state and local government web resources and services.